Showing default

ICEYE-X56, 64574

Orbit data source: Space-Track

ICEYE-X56, 64574 is a payload satellite owned by ICEYE (FI) in SSO that was launched on Mon, 23 Jun 2025 UTC via an FALCON 9 launch vehicle from the Air Force Western Test Range (AFWTR). Payload-class satellites include a variety of spacecraft equipped with specific instruments for various scientific and technological missions. These include communications satellites like Starlink; space stations such as the ISS; scientific satellites like the Hubble; Earth observation satellites from companies like Planet Labs, Umbra, and HawkEye 360; GPS; miniature CubeSats for education and research; and military/defense satellites.

Loading next visibility...
Identifier
64574, 2025-135AY
Orbit
SSO
Country
Flag of FIFI / FIN
Related business
Manufacturer
ICEYE
Mission
Operational Commercial Radar Imaging
Bus & Motor
ICEYE, Unknown motor
Mass
80 kg wet, 80 kg dry
Launch date (UTC)
2025-06-23 (10 months ago)
Launch vehicle
FALCON 9
Launch site
Air Force Western Test Range (AFWTR)
Object type
Payload
Rocket body
Debris
Shape & HBR
Box + 1 Pan, 2.4 m
Radar Cross Section
0.776 m², Large (>1 m²)

Expand to show TLE details & history
Last TLE update: 5 hours ago

TLE from 5 hours ago
0 ICEYE-X56
1 64574U 25135AY  26120.19074296  .00003826  00000-0  35225-3 0  9990
2 64574  97.7681 235.5520 0003378 121.7105 238.4445 14.95324802 46756
Epoch: 2026-04-30T04:34Z
TLE epoch observation values (Epoch: 2026-04-30T04:34:40.191Z)
Latitude
-0.00007°
Longitude
-51.25635°
Altitude
585.642 km
Speed
7.567 km/s
True Right ascension
15h 42m 12s
True Declination
0° 00' 00"
Sunlit
Object was in full shadow at epoch
Visualization orbit readout
Latitude
Unknown
Longitude
Unknown
Altitude
Unknown
Speed
Unknown
Apparent Right ascension
Unknown
Apparent Declination
Unknown
Sunlit
N/A
Visualization observer readout
Local Sidereal Time
16:38:36
Azimuth
Unknown
Elevation
Unknown
Doppler factor
Unknown
Orbital elements
Apogee altitude
580.729 km
Perigee altitude
576.029 km
Semi-major axis
6,956.516 km
Eccentricity
0.00034
Inclination
97.7681°
RAAN
235.552°
Arg. of periapsis
121.7105°
True anomaly
238.41152°
Mean anomaly
238.4445°
Eccentric anomaly
238.42801°
Mean motion
3.74072 °/min
Orbital period
96.24 mins
BSTAR
0.00035225
Loading maneuver chart data...
Computing Atmospheric mass density...
Loading historical data...
Loading historical data...
Loading historical data...
Loading historical data...
Loading historical data...
Loading historical data...
Loading historical data...

Documentation

Showing up to 5 results
|